Regional Weather Roundup
Issued by NWS Northern Indiana

Home | Current Version | Previous Version | Graphics & Text | Print | Product List | Glossary On
Versions: 1 2 3 4 5 6 7 8 9 10 11 12 13 14 15 16 17 18 19 20 21 22 23 24 25 26 27 28 29 30 31 32 33 34 35 36 37 38 39 40 41 42 43 44 45 46 47 48 49 50
894
ASUS43 KIWX 160700
RWRIWX

KIWX WEATHER ROUNDUP
NATIONAL WEATHER SERVICE NORTHERN INDIANA
200 AM EST SAT DEC 16 2017

NOTE: "FAIR" INDICATES FEW OR NO CLOUDS BELOW 12,000 FEET WITH NO
SIGNIFICANT WEATHER AND/OR OBSTRUCTIONS TO VISIBILITY.

* THESE STATIONS ARE NOT UNDER NWS QUALITY CONTROL. THEY ALSO MAY NOT
  REPORT WEATHER SUCH AS PRECIPITATION OR FOG.

INZ001>027-160800-
NORTHERN INDIANA

CITY           SKY/WX    TMP DP  RH WIND       PRES   REMARKS
SOUTH BEND     CLOUDY    33  24  69 SW15      29.90S WCI  23
GOSHEN         CLOUDY    32  23  69 SW15      29.91R WCI  22
MONTICELLO*    CLOUDY    34  20  57 SW12G17   29.97S WCI  25
FORT WAYNE     CLOUDY    33  24  69 SW20      29.94F WCI  21
PERU/GRISSOM   CLOUDY    35  22  59 SW17      29.96R WCI  25

$$
INZ028>050-160800-
CENTRAL INDIANA

CITY           SKY/WX    TMP DP  RH WIND       PRES   REMARKS
LAFAYETTE      CLOUDY    34  22  61 SW7       29.99S WCI  28
KOKOMO*        CLOUDY    35  22  58 SW16      29.98S WCI  25
MUNCIE*        CLOUDY    34  23  64 SW13      29.98F WCI  25
INDIANAPOLIS   CLOUDY    32  23  69 S8        30.02F WCI  25

$$
MIZ043>046-050>051-056>058-064>065-071>073-077>080-160800-
SOUTHWEST LOWER MICHIGAN

CITY           SKY/WX    TMP DP  RH WIND       PRES   REMARKS
BATTLE CREEK   CLOUDY    29  25  85 SW10      29.87R WCI  20
BENTON HARBOR  CLOUDY    38  26  62 SW18      29.87S
COLDWATER*     CLOUDY    31  23  72 SW8       29.89S WCI  23
HILLSDALE*     CLOUDY    30  23  74 SW7       29.87S WCI  23
HOLLAND        LGT SNOW  34  31  88 W8        29.85S FOG     WCI  27
GRAND RAPIDS   LGT SNOW  25  23  92 E5        29.85S VSB 3/4 WCI  19
KALAMAZOO      CLOUDY    30  24  78 SW12      29.87S WCI  20
STURGIS*       CLOUDY    32  24  72 SW10G16   29.88S WCI  23
THREE RIVERS*  CLOUDY    32  24  72 SW9       29.89S WCI  24

$$
OHZ001>008-015>018-024>025-160800-
NORTHWEST OHIO

CITY           SKY/WX    TMP DP  RH WIND       PRES   REMARKS
DEFIANCE       CLOUDY    30  22  72 SW12      29.94S WCI  20
FINDLAY        CLOUDY    31  21  66 SW14      29.95F WCI  21
TOLEDO EXPRESS CLOUDY    30  23  75 SW10      29.93S WCI  21
TOLEDO METCALF CLOUDY    30  22  72 SW14      29.94S WCI  19
LIMA           CLOUDY    31  24  75 SW14      29.96F WCI  21

$$
AND FOR LAKE MICHIGAN COASTAL AND OPEN LAKE BUOY OBSERVATIONS

STATION/POSITION TEMP    WIND        PRES    VSBY  WAVE
                 AIR SEA DIR/SP/G                  HT/PER
                 (F)     (DEG/KT/KT) (MB)    (MI)  (FT/S)
CALUMET HARBOR    37     210/ 11/ 18 1011.7S
MICHIGAN CITY     37     210/ 24/ 28   N/A
BURNS HARBOR      38     210/ 18/ 21 1012.9S
SAINT JOSEPH      38     220/ 20/ 25 1011.5

$$
&&




USA.gov is the U.S. government's official web portal to all federal, state and local government web resources and services.